Tracking 29892 objects as of 21-Nov-2024
HD Live streaming from Space Station
objects crossing your sky now

STARLINK-4334

Track STARLINK-4334 now!
10-day predictions


NORAD ID: 53665
Int'l Code: 2022-105T
Perigee: 569.0 km
Apogee: 571.2 km
Inclination: 97.7 °
Period: 95.9 minutes
Semi major axis: 6941 km
RCS: Unknown
Launch date: August 31, 2022
Source: United States (US)
Launch site: AIR FORCE WESTERN TEST RANGE (AFWTR)
Your satellite tracking list
Your tracking list is empty




NASA's NSSDC Master Catalog

Two Line Element Set (TLE):
1 53665U 22105T   24325.65218485  .00000596  00000-0  50999-4 0  9996
2 53665  97.6546 204.2532 0001569 102.0936 258.0464 15.01266664122117
Source of the keplerian elements: AFSPC